Flag for Poland Weather past 2 weeks in Warsaw, Poland

Now
70 °F

Sunny.


Feels Like: 70 °F
Forecast: 57 / 70 °F
Wind: 9 mph from Southwest

Location: Warsaw Okecie Airport

Current Time: Jul 29, 2015 at 2:25:07 PM

Latest Report: Jul 29, 2015 at 2:00 PM


Visibility: 10 mi

Pressure: 29.74 "Hg

Humidity: 50%

Dew point: 50 °F

Location of WarsawLocation

Historic Weather in Warsaw — Graph

°F

Warsaw temperature yesterday

Maximum temperature yesterday: 72 °F (at 11:00 AM)
Minimum temperature yesterday: 57 °F (at 11:30 PM)
Average temperature yesterday: 64 °F

Past Weeks' High & Low Weather Summary

 TemperatureHumidityPressure
High97 °F (Jul 18, 3:00 PM)100% (Jul 15, 4:00 AM)30.09 "Hg (Jul 15, 4:00 AM)
Low50 °F (Jul 27, 4:00 AM)26% (Jul 18, 4:30 PM)29.62 "Hg (Jul 19, 7:30 PM)
Average70 °F64%29.89 "Hg
* Reported Jul 14 1:00 PM — Jul 29 1:00 PM, Warsaw, Weather by CustomWeather, © 2015

Note: Actual official high and low records may vary slightly from our data, if they occured in-between our weather recording intervals... More about our weather records

Advertising

Warsaw weather history for previous 24 hours

 ConditionsComfort  
Time TempWeatherWind HumidityBarometerVisibility
1:00 PM
Wed, Jul 29
68 °FPassing clouds.6 mph49%29.77 "HgN/A
12:30 PM68 °FScattered clouds.7 mph49%29.77 "HgN/A
12:00 PM68 °FScattered clouds.7 mph49%29.77 "HgN/A
11:30 AM72 °FPassing clouds.12 mph47%29.77 "HgN/A
11:00 AM72 °FScattered clouds.12 mph47%29.77 "HgN/A
10:30 AM70 °FPassing clouds.9 mph53%29.77 "HgN/A
10:00 AM68 °FPassing clouds.6 mph56%29.77 "HgN/A
9:30 AM64 °FSunny.6 mph64%29.77 "Hg10 mi
9:00 AM63 °FPassing clouds.5 mph68%29.77 "HgN/A
8:30 AM63 °FPassing clouds.5 mph64%29.77 "HgN/A
8:00 AM64 °FPassing clouds.7 mph60%29.77 "HgN/A
7:30 AM63 °FPassing clouds.7 mph64%29.77 "HgN/A
7:00 AM61 °FPassing clouds.3 mph68%29.77 "HgN/A
6:30 AM57 °FSunny.3 mph82%29.77 "Hg10 mi
6:00 AM57 °FSunny.2 mph77%29.77 "Hg10 mi
5:00 AM55 °FClear.2 mph82%29.74 "Hg10 mi
4:30 AM57 °FClear.2 mph77%29.74 "Hg10 mi
4:00 AM57 °FClear.5 mph82%29.74 "Hg10 mi
3:30 AM55 °FClear.5 mph88%29.74 "Hg10 mi
3:00 AM55 °FClear.3 mph88%29.74 "Hg10 mi
2:30 AM57 °FClear.5 mph82%29.74 "Hg10 mi
2:00 AM57 °FClear.3 mph82%29.74 "Hg10 mi
1:30 AM55 °FClear.6 mph94%29.74 "Hg10 mi
1:00 AM57 °FClear.6 mph88%29.74 "Hg10 mi
11:30 PM
Tue, Jul 28
57 °FPassing clouds.3 mph88%29.71 "HgN/A
11:00 PM59 °FClear.6 mph82%29.71 "Hg10 mi
10:30 PM59 °FClear.7 mph82%29.71 "Hg10 mi
10:00 PM61 °FPassing clouds.5 mph77%29.71 "HgN/A
9:30 PM61 °FSunny.5 mph77%29.68 "Hg10 mi
9:00 PM63 °FPassing clouds.3 mph73%29.68 "HgN/A
8:00 PM64 °FSunny.8 mph68%29.68 "Hg10 mi
7:30 PM64 °FPassing clouds.7 mph64%29.68 "HgN/A
7:00 PM66 °FPassing clouds.7 mph56%29.68 "HgN/A
6:30 PM64 °FPassing clouds.10 mph60%29.68 "HgN/A
6:00 PM66 °FPassing clouds.10 mph56%29.65 "HgN/A
5:30 PM68 °FPassing clouds.9 mph53%29.65 "HgN/A
5:00 PM68 °FSunny.9 mph53%29.65 "Hg10 mi
4:30 PM70 °FPassing clouds.12 mph53%29.65 "HgN/A
4:00 PM70 °FPassing clouds.13 mph57%29.65 "HgN/A
3:30 PM70 °FSunny.9 mph60%29.65 "Hg10 mi
3:00 PM68 °FPassing clouds.10 mph69%29.65 "HgN/A
2:30 PM68 °FScattered clouds.8 mph69%29.65 "HgN/A
2:00 PM72 °FScattered clouds.12 mph57%29.65 "HgN/A
Weather by CustomWeather, © 2015

See weather overviewHow to use our weather pages